2015-01-02 00:03:26 r, 14.72m,0000000114Hz,0000004032c,0000000.009s, 002.5C,00002195
2015-01-02 00:13:26 r, 14.67m,0000000119Hz,0000003857c,0000000.008s, 002.5C,00002195
2015-01-02 00:23:26 r, 14.69m,0000000117Hz,0000003907c,0000000.008s, 002.9C,00002195
2015-01-02 00:33:26 r, 14.70m,0000000117Hz,0000003953c,0000000.009s, 002.5C,00002195
2015-01-02 00:43:26 r, 14.60m,0000000128Hz,0000000000c,0000000.000s, 002.5C,00002195
2015-01-02 00:53:26 r, 14.55m,0000000135Hz,0000000000c,0000000.000s, 002.5C,00002195
2015-01-02 01:03:26 r, 14.47m,0000000145Hz,0000000000c,0000000.000s, 002.5C,00002195
2015-01-02 01:13:26 r, 14.33m,0000000164Hz,0000000000c,0000000.000s, 002.5C,00002195
2015-01-02 01:23:26 r, 14.29m,0000000171Hz,0000000000c,0000000.000s, 002.5C,00002195
2015-01-02 01:33:26 r, 14.31m,0000000168Hz,0000000000c,0000000.000s, 002.5C,00002195
2015-01-02 01:43:26 r, 14.33m,0000000165Hz,0000000000c,0000000.000s, 002.5C,00002195
2015-01-02 01:53:26 r, 14.47m,0000000145Hz,0000000000c,0000000.000s, 002.9C,00002195
2015-01-02 02:03:26 r, 14.66m,0000000121Hz,0000003792c,0000000.008s, 002.9C,00002195
2015-01-02 02:13:26 r, 14.55m,0000000135Hz,0000000000c,0000000.000s, 002.9C,00002195
2015-01-02 02:23:26 r, 14.43m,0000000150Hz,0000000000c,0000000.000s, 002.9C,00002195
2015-01-02 02:33:26 r, 14.47m,0000000145Hz,0000000000c,0000000.000s, 003.2C,00002195
2015-01-02 02:43:26 r, 14.56m,0000000134Hz,0000000000c,0000000.000s, 003.2C,00002195
2015-01-02 02:53:26 r, 14.70m,0000000116Hz,0000003951c,0000000.009s, 003.2C,00002195
2015-01-02 03:03:26 r, 14.75m,0000000112Hz,0000004141c,0000000.009s, 003.2C,00002195
2015-01-02 03:13:26 r, 14.83m,0000000102Hz,0000004455c,0000000.010s, 003.5C,00002195
2015-01-02 03:23:26 r, 14.81m,0000000104Hz,0000004385c,0000000.010s, 003.5C,00002195
2015-01-02 03:33:26 r, 14.81m,0000000105Hz,0000004415c,0000000.010s, 003.8C,00002195
2015-01-02 03:43:26 r, 14.78m,0000000107Hz,0000004282c,0000000.009s, 003.8C,00002195
2015-01-02 03:53:26 r, 14.92m,0000000095Hz,0000004863c,0000000.011s, 004.1C,00002195
2015-01-02 04:03:26 r, 15.14m,0000000078Hz,0000005933c,0000000.013s, 004.1C,00002195
2015-01-02 04:13:26 r, 15.29m,0000000068Hz,0000006841c,0000000.015s, 004.1C,00002195
2015-01-02 04:23:26 r, 15.27m,0000000069Hz,0000006670c,0000000.014s, 004.1C,00002195
2015-01-02 04:33:26 r, 15.07m,0000000082Hz,0000005599c,0000000.012s, 004.1C,00002195
2015-01-02 04:43:26 r, 15.07m,0000000083Hz,0000005558c,0000000.012s, 004.1C,00002195
2015-01-02 04:53:26 r, 15.07m,0000000083Hz,0000005559c,0000000.012s, 004.1C,00002195
2015-01-02 05:03:26 r, 15.05m,0000000084Hz,0000005473c,0000000.012s, 004.1C,00002195
2015-01-02 05:13:26 r, 14.93m,0000000094Hz,0000004918c,0000000.011s, 004.1C,00002195
2015-01-02 05:23:26 r, 14.79m,0000000105Hz,0000004310c,0000000.009s, 004.5C,00002195
2015-01-02 05:33:26 r, 14.77m,0000000109Hz,0000004230c,0000000.009s, 004.5C,00002195
2015-01-02 05:43:26 r, 14.75m,0000000112Hz,0000004139c,0000000.009s, 004.5C,00002195
2015-01-02 05:53:26 r, 14.74m,0000000111Hz,0000004117c,0000000.009s, 004.5C,00002195
2015-01-02 06:03:26 r, 14.75m,0000000110Hz,0000004152c,0000000.009s, 004.8C,00002195
2015-01-02 06:13:26 r, 14.77m,0000000108Hz,0000004218c,0000000.009s, 004.8C,00002195
2015-01-02 06:23:26 r, 14.80m,0000000106Hz,0000004345c,0000000.009s, 004.8C,00002195
2015-01-02 06:33:26 r, 14.86m,0000000101Hz,0000004583c,0000000.010s, 004.8C,00002195
2015-01-02 06:43:26 r, 14.90m,0000000097Hz,0000004760c,0000000.010s, 004.8C,00002195
2015-01-02 06:53:26 r, 15.16m,0000000076Hz,0000006033c,0000000.013s, 005.1C,00002195
2015-01-02 07:03:26 r, 15.39m,0000000063Hz,0000007441c,0000000.016s, 005.1C,00002195
2015-01-02 07:13:26 r, 15.63m,0000000050Hz,0000009333c,0000000.020s, 005.1C,00002195
2015-01-02 07:23:26 r, 15.78m,0000000043Hz,0000010734c,0000000.023s, 005.1C,00002195
2015-01-02 07:33:26 r, 15.64m,0000000048Hz,0000009465c,0000000.021s, 004.8C,00002195
2015-01-02 07:43:26 r, 14.95m,0000000092Hz,0000004980c,0000000.011s, 004.8C,00002195
2015-01-02 07:53:26 r, 13.62m,0000000317Hz,0000000000c,0000000.000s, 004.8C,00002195
2015-01-02 08:03:26 r, 11.97m,0000001449Hz,0000000000c,0000000.000s, 004.8C,00002195
2015-01-02 08:13:26 r, 10.47m,0000005769Hz,0000000000c,0000000.000s, 005.1C,00002195
2015-01-02 08:23:26 r, 09.33m,0000016488Hz,0000000000c,0000000.000s, 005.1C,00002195
2015-01-02 08:33:26 r, 08.41m,0000038516Hz,0000000000c,0000000.000s, 005.1C,00002195
2015-01-02 08:43:26 r, 07.67m,0000076149Hz,0000000000c,0000000.000s, 005.1C,00002195
2015-01-02 08:53:26 r, 07.19m,0000118568Hz,0000000000c,0000000.000s, 005.1C,00002195
2015-01-02 09:03:26 r, 06.91m,0000153491Hz,0000000000c,0000000.000s, 005.1C,00002195
2015-01-02 09:13:26 r, 06.53m,0000218116Hz,0000000000c,0000000.000s, 005.8C,00002195
2015-01-02 09:23:26 r, 06.08m,0000329176Hz,0000000000c,0000000.000s, 005.8C,00002195
2015-01-02 09:33:26 r, 06.11m,0000323550Hz,0000000000c,0000000.000s, 006.1C,00002195
2015-01-02 09:43:26 r, 06.07m,0000335047Hz,0000000000c,0000000.000s, 006.1C,00002195
2015-01-02 09:53:26 r, 00.00m,0000537577Hz,0000000000c,0000000.000s, 006.1C,00002195
2015-01-02 10:03:26 r, 00.00m,0000537518Hz,0000000000c,0000000.000s, 006.4C,00002195
2015-01-02 10:13:26 r, 00.00m,0000446462Hz,0000000000c,0000000.000s, 006.7C,00002195
2015-01-02 10:23:26 r, 00.00m,0000561625Hz,0000000000c,0000000.000s, 007.0C,00002195
2015-01-02 10:33:26 r, 00.00m,0000561633Hz,0000000000c,0000000.000s, 007.0C,00002195
2015-01-02 10:43:26 r, 00.00m,0000561659Hz,0000000000c,0000000.000s, 007.7C,00002195
2015-01-02 10:53:26 r, 00.00m,0000561692Hz,0000000000c,0000000.000s, 008.3C,00002195
2015-01-02 11:03:26 r, 00.00m,0000561908Hz,0000000000c,0000000.000s, 009.6C,00002195
2015-01-02 11:13:26 r, 00.00m,0000562140Hz,0000000000c,0000000.000s, 010.9C,00002195
2015-01-02 11:23:26 r, 00.00m,0000562234Hz,0000000000c,0000000.000s, 011.9C,00002195
2015-01-02 11:33:26 r, 00.00m,0000562344Hz,0000000000c,0000000.000s, 012.8C,00002195
2015-01-02 11:43:26 r, 00.00m,0000562475Hz,0000000000c,0000000.000s, 013.8C,00002195
2015-01-02 11:53:26 r, 00.00m,0000562607Hz,0000000000c,0000000.000s, 014.1C,00002195
2015-01-02 12:03:26 r, 00.00m,0000562715Hz,0000000000c,0000000.000s, 014.8C,00002195
2015-01-02 12:13:26 r, 00.00m,0000562667Hz,0000000000c,0000000.000s, 014.5C,00002195
2015-01-02 12:23:26 r, 00.00m,0000562546Hz,0000000000c,0000000.000s, 013.8C,00002195
2015-01-02 12:33:26 r, 00.00m,0000562581Hz,0000000000c,0000000.000s, 013.5C,00002195
2015-01-02 12:43:26 r, 00.00m,0000562452Hz,0000000000c,0000000.000s, 013.5C,00002195
2015-01-02 12:53:26 r, 00.00m,0000562423Hz,0000000000c,0000000.000s, 012.8C,00002195
2015-01-02 13:03:26 r, 00.00m,0000562437Hz,0000000000c,0000000.000s, 012.5C,00002195
2015-01-02 13:13:26 r, 00.00m,0000562467Hz,0000000000c,0000000.000s, 012.2C,00002195
2015-01-02 13:23:26 r, 00.00m,0000562242Hz,0000000000c,0000000.000s, 012.2C,00002195
2015-01-02 13:33:26 r, 00.00m,0000562041Hz,0000000000c,0000000.000s, 010.9C,00002195
2015-01-02 13:43:26 r, 00.00m,0000562018Hz,0000000000c,0000000.000s, 010.3C,00002195
2015-01-02 13:53:26 r, 00.00m,0000561967Hz,0000000000c,0000000.000s, 009.9C,00002195
2015-01-02 14:03:26 r, 00.00m,0000561856Hz,0000000000c,0000000.000s, 009.6C,00002195
2015-01-02 14:13:26 r, 00.00m,0000561797Hz,0000000000c,0000000.000s, 009.0C,00002195
2015-01-02 14:23:26 r, 00.00m,0000561829Hz,0000000000c,0000000.000s, 009.0C,00002195
2015-01-02 14:33:26 r, 00.00m,0000561922Hz,0000000000c,0000000.000s, 009.0C,00002195
2015-01-02 14:43:26 r, 00.00m,0000561856Hz,0000000000c,0000000.000s, 009.3C,00002195
2015-01-02 14:53:26 r, 00.00m,0000561903Hz,0000000000c,0000000.000s, 009.3C,00002195
2015-01-02 15:03:26 r, 00.00m,0000561906Hz,0000000000c,0000000.000s, 009.6C,00002195
2015-01-02 15:13:26 r, 00.00m,0000561911Hz,0000000000c,0000000.000s, 009.6C,00002195
2015-01-02 15:23:26 r, 00.00m,0000561973Hz,0000000000c,0000000.000s, 009.3C,00002195
2015-01-02 15:33:26 r, 00.00m,0000562689Hz,0000000000c,0000000.000s, 009.0C,00002195
2015-01-02 15:43:26 r, 00.00m,0000453468Hz,0000000000c,0000000.000s, 008.7C,00002195
2015-01-02 15:53:26 r, 06.14m,0000311527Hz,0000000000c,0000000.000s, 008.3C,00002195
2015-01-02 16:03:26 r, 06.52m,0000219250Hz,0000000000c,0000000.000s, 007.7C,00002195
2015-01-02 16:13:26 r, 07.00m,0000142014Hz,0000000000c,0000000.000s, 007.4C,00002195
2015-01-02 16:23:26 r, 07.57m,0000083966Hz,0000000000c,0000000.000s, 007.0C,00002195
2015-01-02 16:33:26 r, 08.29m,0000043253Hz,0000000000c,0000000.000s, 006.7C,00002195
2015-01-02 16:43:26 r, 09.14m,0000019810Hz,0000000000c,0000000.000s, 006.4C,00002195
2015-01-02 16:53:26 r, 10.39m,0000006226Hz,0000000000c,0000000.000s, 006.4C,00002195
2015-01-02 17:03:26 r, 11.96m,0000001458Hz,0000000000c,0000000.000s, 006.1C,00002195
2015-01-02 17:13:26 r, 13.34m,0000000413Hz,0000000000c,0000000.000s, 006.1C,00002195
2015-01-02 17:23:26 r, 14.07m,0000000209Hz,0000000000c,0000000.000s, 006.1C,00002195
2015-01-02 17:33:26 r, 14.20m,0000000185Hz,0000000000c,0000000.000s, 006.4C,00002195
2015-01-02 17:43:26 r, 14.20m,0000000185Hz,0000000000c,0000000.000s, 006.4C,00002195
2015-01-02 17:53:26 r, 14.21m,0000000184Hz,0000000000c,0000000.000s, 006.4C,00002195
2015-01-02 18:03:26 r, 14.18m,0000000188Hz,0000000000c,0000000.000s, 006.1C,00002195
2015-01-02 18:13:26 r, 14.18m,0000000188Hz,0000000000c,0000000.000s, 005.8C,00002195
2015-01-02 18:23:26 r, 14.21m,0000000183Hz,0000000000c,0000000.000s, 005.8C,00002195
2015-01-02 18:33:26 r, 14.22m,0000000182Hz,0000000000c,0000000.000s, 005.8C,00002195
2015-01-02 18:43:26 r, 14.15m,0000000195Hz,0000000000c,0000000.000s, 005.4C,00002195
2015-01-02 18:53:26 r, 14.07m,0000000210Hz,0000000000c,0000000.000s, 005.4C,00002195
2015-01-02 19:03:26 r, 14.03m,0000000216Hz,0000000000c,0000000.000s, 005.4C,00002195
2015-01-02 19:13:26 r, 14.05m,0000000214Hz,0000000000c,0000000.000s, 005.4C,00002195
2015-01-02 19:23:26 r, 14.01m,0000000222Hz,0000000000c,0000000.000s, 005.4C,00002195
2015-01-02 19:33:26 r, 13.94m,0000000235Hz,0000000000c,0000000.000s, 005.4C,00002195
2015-01-02 19:43:26 r, 13.87m,0000000251Hz,0000000000c,0000000.000s, 005.4C,00002195
2015-01-02 19:53:26 r, 13.76m,0000000281Hz,0000000000c,0000000.000s, 005.4C,00002195
2015-01-02 20:03:26 r, 13.72m,0000000291Hz,0000000000c,0000000.000s, 005.4C,00002195
2015-01-02 20:13:26 r, 13.69m,0000000299Hz,0000000000c,0000000.000s, 005.1C,00002195
2015-01-02 20:23:26 r, 13.68m,0000000300Hz,0000000000c,0000000.000s, 005.1C,00002195
2015-01-02 20:33:26 r, 13.48m,0000000361Hz,0000000000c,0000000.000s, 005.1C,00002195
2015-01-02 20:43:26 r, 13.43m,0000000378Hz,0000000000c,0000000.000s, 005.1C,00002195
2015-01-02 20:53:26 r, 13.34m,0000000409Hz,0000000000c,0000000.000s, 004.8C,00002195
2015-01-02 21:03:26 r, 13.32m,0000000418Hz,0000000000c,0000000.000s, 004.8C,00002195
2015-01-02 21:13:26 r, 13.31m,0000000421Hz,0000000000c,0000000.000s, 004.8C,00002195
2015-01-02 21:23:26 r, 13.31m,0000000423Hz,0000000000c,0000000.000s, 004.5C,00002195
2015-01-02 21:33:26 r, 13.29m,0000000428Hz,0000000000c,0000000.000s, 004.5C,00002195
2015-01-02 21:43:26 r, 13.24m,0000000448Hz,0000000000c,0000000.000s, 004.5C,00002195
2015-01-02 21:53:26 r, 13.27m,0000000439Hz,0000000000c,0000000.000s, 004.5C,00002195
2015-01-02 22:03:26 r, 13.29m,0000000429Hz,0000000000c,0000000.000s, 004.1C,00002195
2015-01-02 22:13:26 r, 13.28m,0000000434Hz,0000000000c,0000000.000s, 004.1C,00002195
2015-01-02 22:23:26 r, 13.27m,0000000436Hz,0000000000c,0000000.000s, 003.8C,00002195
2015-01-02 22:33:26 r, 13.31m,0000000420Hz,0000000000c,0000000.000s, 003.5C,00002195
2015-01-02 22:43:26 r, 13.31m,0000000422Hz,0000000000c,0000000.000s, 003.2C,00002195
2015-01-02 22:53:26 r, 13.36m,0000000404Hz,0000000000c,0000000.000s, 003.2C,00002195
2015-01-02 23:03:26 r, 13.39m,0000000391Hz,0000000000c,0000000.000s, 002.9C,00002195
2015-01-02 23:13:26 r, 13.46m,0000000368Hz,0000000000c,0000000.000s, 002.2C,00002195
2015-01-02 23:23:26 r, 13.53m,0000000345Hz,0000000000c,0000000.000s, 002.2C,00002195
2015-01-02 23:33:26 r, 13.54m,0000000340Hz,0000000000c,0000000.000s, 001.9C,00002195
2015-01-02 23:43:26 r, 13.51m,0000000351Hz,0000000000c,0000000.000s, 001.6C,00002195
2015-01-02 23:53:26 r, 13.46m,0000000369Hz,0000000000c,0000000.000s, 001.2C,00002195
